sat.trackr.live / text

‹ back to catalog

STARLINK-35469

NORAD 65863 · 2025-223K

PAYLOAD ACTIVE UNKNOWN

§ Identity

Operator
Country
US
Launch date
2025-10-03
Launch site
AFWTR
Launch vehicle
Mass (kg)
RCS (m²)

Purposes: comms

External: N2YO · Heavens-Above · Gunter

§ Orbital elements

Epoch: 2026-05-25T03:20:52.791360Z

Period
93.85 min
Inclination
53.1614°
Eccentricity
0.0001636
Mean motion
15.34414973 rev/d
Perigee alt
461.5 km
Apogee alt
463.8 km
Semi-major
6,840.8 km
B*
7.0948e-4
RAAN
298.8494°
Arg perigee
92.5727°
Mean anomaly
267.5463°
Rev number
3,591

§ Raw data

STARLINK-354691 65863U 25223K   26145.13949990  .00023682  00000+0  70948-3 0  99952 65863  53.1614 298.8494 0001636  92.5727 267.5463 15.34414973 35914

JSON: /api/v1/satellites/65863 · /tle

For live sub-satellite position, see the globe view (requires WebGL).

§ Visibility from observer

Set your observer location to see the next 7 days of passes ≥ 10°. The values pass through the URL so the page stays shareable.

No JS? Fill the form by hand. The geolocation button needs JavaScript.